owner,sensor,date,latitude,longitude,vertical_datum,direction_of_sea_water_velocity,sea_water_speed,upward_sea_water_velocity,qcFlag 
TABS,ioos:station:wmo:42048:1,2000-06-01T00:00:00Z,27.9396,-96.8429,2.0,45.40339969,15.0688188,-99999.0,'11111222,11111222,99999999' 
TABS,ioos:station:wmo:42048:1,2000-06-01T00:30:00Z,27.9396,-96.8429,2.0,46.72190074,14.12022663,-99999.0,'11111222,11111222,99999999' 
TABS,ioos:station:wmo:42048:1,2000-06-01T01:00:00Z,27.9396,-96.8429,2.0,42.28540303,13.28730597,-99999.0,'11111222,11111222,99999999' 
TABS,ioos:station:wmo:42048:1,2000-06-01T01:30:00Z,27.9396,-96.8429,2.0,50.78166731,12.49449479,-99999.0,'11111222,11111222,99999999' 
TABS,ioos:station:wmo:42048:1,2000-06-01T02:00:00Z,27.9396,-96.8429,2.0,45.48506284,11.69596512,-99999.0,'11111222,11111222,99999999' 
TABS,ioos:station:wmo:42048:1,2000-06-01T02:30:00Z,27.9396,-96.8429,2.0,39.89856008,11.84854843,-99999.0,'11111222,11111222,99999999' 
TABS,ioos:station:wmo:42048:1,2000-06-01T03:00:00Z,27.9396,-96.8429,2.0,33.91141681,9.338447408,-99999.0,'11133222,11111222,99999999' 
TABS,ioos:station:wmo:42048:1,2000-06-01T03:30:00Z,27.9396,-96.8429,2.0,29.65925034,9.942635466,-99999.0,'11133222,11111222,99999999' 
TABS,ioos:station:wmo:42048:1,2000-06-01T04:00:00Z,27.9396,-96.8429,2.0,31.7283348,9.640793536,-99999.0,'11133222,11111222,99999999' 
TABS,ioos:station:wmo:42048:1,2000-06-01T04:30:00Z,27.9396,-96.8429,2.0,30.11758501,10.68209717,-99999.0,'11111222,11111222,99999999' 
TABS,ioos:station:wmo:42048:1,2000-06-01T05:00:00Z,27.9396,-96.8429,2.0,28.03399679,10.46823767,-99999.0,'11111222,11111222,99999999' 
TABS,ioos:station:wmo:42048:1,2000-06-01T05:30:00Z,27.9396,-96.8429,2.0,30.40478687,10.01770932,-99999.0,'11111222,11111222,99999999' 
TABS,ioos:station:wmo:42048:1,2000-06-01T06:00:00Z,27.9396,-96.8429,2.0,31.48986073,10.83573717,-99999.0,'11111222,11111222,99999999' 
TABS,ioos:station:wmo:42048:1,2000-06-01T06:30:00Z,27.9396,-96.8429,2.0,27.92418992,11.12533146,-99999.0,'11111222,11111222,99999999' 
TABS,ioos:station:wmo:42048:1,2000-06-01T07:00:00Z,27.9396,-96.8429,2.0,35.98692195,11.41935637,-99999.0,'11111222,11111222,99999999' 
TABS,ioos:station:wmo:42048:1,2000-06-01T07:30:00Z,27.9396,-96.8429,2.0,36.01087771,10.13713964,-99999.0,'11111222,11111222,99999999' 
TABS,ioos:station:wmo:42048:1,2000-06-01T08:00:00Z,27.9396,-96.8429,2.0,35.98692195,11.41935637,-99999.0,'11111222,11111222,99999999' 
TABS,ioos:station:wmo:42048:1,2000-06-01T08:30:00Z,27.9396,-96.8429,2.0,36.18421223,12.36488577,-99999.0,'11111222,11111222,99999999' 
TABS,ioos:station:wmo:42048:1,2000-06-01T09:00:00Z,27.9396,-96.8429,2.0,41.06288927,12.25479906,-99999.0,'11111222,11111222,99999999' 
TABS,ioos:station:wmo:42048:1,2000-06-01T09:30:00Z,27.9396,-96.8429,2.0,45.54924796,11.06672942,-99999.0,'11111222,11111222,99999999' 
TABS,ioos:station:wmo:42048:1,2000-06-01T10:00:00Z,27.9396,-96.8429,2.0,48.5979969,11.71864327,-99999.0,'11111222,11111222,99999999' 
TABS,ioos:station:wmo:42048:1,2000-06-01T10:30:00Z,27.9396,-96.8429,2.0,48.66428098,11.50693704,-99999.0,'11111222,11111222,99999999' 
TABS,ioos:station:wmo:42048:1,2000-06-01T11:00:00Z,27.9396,-96.8429,2.0,53.30948201,10.22605007,-99999.0,'11111222,11111222,99999999' 
TABS,ioos:station:wmo:42048:1,2000-06-01T11:30:00Z,27.9396,-96.8429,2.0,54.93113655,10.37312393,-99999.0,'11111222,11111222,99999999' 
TABS,ioos:station:wmo:42048:1,2000-06-01T12:00:00Z,27.9396,-96.8429,2.0,59.34404381,10.21803308,-99999.0,'11111222,11111222,99999999' 
TABS,ioos:station:wmo:42048:1,2000-06-01T12:30:00Z,27.9396,-96.8429,2.0,55.60953073,9.755131983,-99999.0,'11133222,11111222,99999999' 
TABS,ioos:station:wmo:42048:1,2000-06-01T13:00:00Z,27.9396,-96.8429,2.0,63.03152715,9.525885786,-99999.0,'11133222,11111222,99999999' 
TABS,ioos:station:wmo:42048:1,2000-06-01T13:30:00Z,27.9396,-96.8429,2.0,63.4634879,8.997938653,-99999.0,'11133222,11111222,99999999' 
TABS,ioos:station:wmo:42048:1,2000-06-01T14:00:00Z,27.9396,-96.8429,2.0,59.53782107,8.817080016,-99999.0,'11133222,11111222,99999999' 
TABS,ioos:station:wmo:42048:1,2000-06-01T14:30:00Z,27.9396,-96.8429,2.0,56.87342942,8.179449859,-99999.0,'11133222,11111222,99999999' 
TABS,ioos:station:wmo:42048:1,2000-06-01T15:00:00Z,27.9396,-96.8429,2.0,51.79228961,8.908428593,-99999.0,'11133222,11111222,99999999' 
TABS,ioos:station:wmo:42048:1,2000-06-01T15:30:00Z,27.9396,-96.8429,2.0,53.71223562,9.056467302,-99999.0,'11133222,11111222,99999999' 
TABS,ioos:station:wmo:42048:1,2000-06-01T16:00:00Z,27.9396,-96.8429,2.0,54.08480666,8.643199639,-99999.0,'11133222,11111222,99999999' 
TABS,ioos:station:wmo:42048:1,2000-06-01T16:30:00Z,27.9396,-96.8429,2.0,53.92033391,8.846841244,-99999.0,'11133222,11111222,99999999' 
TABS,ioos:station:wmo:42048:1,2000-06-01T17:00:00Z,27.9396,-96.8429,2.0,51.34028215,9.540655114,-99999.0,'11133222,11111222,99999999' 
TABS,ioos:station:wmo:42048:1,2000-06-01T17:30:00Z,27.9396,-96.8429,2.0,46.40642615,8.643448386,-99999.0,'11133222,11111222,99999999' 
TABS,ioos:station:wmo:42048:1,2000-06-01T18:00:00Z,27.9396,-96.8429,2.0,47.81105462,8.651254244,-99999.0,'11133222,11111222,99999999' 
TABS,ioos:station:wmo:42048:1,2000-06-01T18:30:00Z,27.9396,-96.8429,2.0,45.66270844,9.171788266,-99999.0,'11133222,11111222,99999999' 
TABS,ioos:station:wmo:42048:1,2000-06-01T19:00:00Z,27.9396,-96.8429,2.0,44.35248045,9.383906436,-99999.0,'11133222,11111222,99999999' 
TABS,ioos:station:wmo:42048:1,2000-06-01T19:30:00Z,27.9396,-96.8429,2.0,45.00010523,9.489373004,-99999.0,'11133222,11111222,99999999' 
TABS,ioos:station:wmo:42048:1,2000-06-01T20:00:00Z,27.9396,-96.8429,2.0,49.2913039,9.828051689,-99999.0,'11133222,11111222,99999999' 
TABS,ioos:station:wmo:42048:1,2000-06-01T20:30:00Z,27.9396,-96.8429,2.0,43.77252927,9.901767519,-99999.0,'11133222,11111222,99999999' 
TABS,ioos:station:wmo:42048:1,2000-06-01T21:00:00Z,27.9396,-96.8429,2.0,50.9959348,8.055588123,-99999.0,'11133222,11111222,99999999' 
TABS,ioos:station:wmo:42048:1,2000-06-01T21:30:00Z,27.9396,-96.8429,2.0,47.95594722,8.227526967,-99999.0,'11133222,11111222,99999999' 
TABS,ioos:station:wmo:42048:1,2000-06-01T22:00:00Z,27.9396,-96.8429,2.0,57.90639637,7.566273852,-99999.0,'11133222,11111222,99999999' 
TABS,ioos:station:wmo:42048:1,2000-06-01T22:30:00Z,27.9396,-96.8429,2.0,58.70487542,8.894065437,-99999.0,'11133222,11111222,99999999' 
TABS,ioos:station:wmo:42048:1,2000-06-01T23:00:00Z,27.9396,-96.8429,2.0,55.3906852,7.605918748,-99999.0,'11133222,11111222,99999999' 
TABS,ioos:station:wmo:42048:1,2000-06-01T23:30:00Z,27.9396,-96.8429,2.0,71.22201069,7.393537719,-99999.0,'11133222,11111222,99999999' 
TABS,ioos:station:wmo:42048:1,2000-06-02T00:00:00Z,27.9396,-96.8429,2.0,71.9413267,6.742121328,-99999.0,'11133222,11111222,99999999' 
TABS,ioos:station:wmo:42048:1,2000-06-02T00:30:00Z,27.9396,-96.8429,2.0,74.30879285,4.954644286,-99999.0,'11133222,11111222,99999999' 
TABS,ioos:station:wmo:42048:1,2000-06-02T01:00:00Z,27.9396,-96.8429,2.0,77.51650265,4.117341375,-99999.0,'11133222,11111222,99999999' 
TABS,ioos:station:wmo:42048:1,2000-06-02T01:30:00Z,27.9396,-96.8429,2.0,68.17209115,4.007305828,-99999.0,'11133222,11111222,99999999' 
TABS,ioos:station:wmo:42048:1,2000-06-02T02:00:00Z,27.9396,-96.8429,2.0,67.0341533,4.203153578,-99999.0,'11133222,11111222,99999999' 
TABS,ioos:station:wmo:42048:1,2000-06-02T02:30:00Z,27.9396,-96.8429,2.0,77.04867191,3.97102002,-99999.0,'11133222,11111222,99999999' 
TABS,ioos:station:wmo:42048:1,2000-06-02T03:00:00Z,27.9396,-96.8429,2.0,85.00143927,3.443094538,-99999.0,'11133222,11111222,99999999' 
TABS,ioos:station:wmo:42048:1,2000-06-02T03:30:00Z,27.9396,-96.8429,2.0,87.11842301,2.98377278,-99999.0,'11133222,11111222,99999999' 
TABS,ioos:station:wmo:42048:1,2000-06-02T04:00:00Z,27.9396,-96.8429,2.0,90.0,2.38,-99999.0,'11133222,11111222,99999999' 
TABS,ioos:station:wmo:42048:1,2000-06-02T04:30:00Z,27.9396,-96.8429,2.0,86.16041264,4.480055803,-99999.0,'11133222,11111222,99999999' 
TABS,ioos:station:wmo:42048:1,2000-06-02T05:00:00Z,27.9396,-96.8429,2.0,99.03497387,2.865554048,-99999.0,'11133222,11111222,99999999' 
TABS,ioos:station:wmo:42048:1,2000-06-02T05:30:00Z,27.9396,-96.8429,2.0,93.39300313,2.53444274,-99999.0,'11133222,11111222,99999999' 
TABS,ioos:station:wmo:42048:1,2000-06-02T06:00:00Z,27.9396,-96.8429,2.0,75.45398529,3.543585755,-99999.0,'11133222,11111222,99999999' 
TABS,ioos:station:wmo:42048:1,2000-06-02T06:30:00Z,27.9396,-96.8429,2.0,93.84817046,2.23503915,-99999.0,'11133222,11111222,99999999' 
TABS,ioos:station:wmo:42048:1,2000-06-02T07:00:00Z,27.9396,-96.8429,2.0,77.38070722,2.746343023,-99999.0,'11133222,11111222,99999999' 
TABS,ioos:station:wmo:42048:1,2000-06-02T07:30:00Z,27.9396,-96.8429,2.0,90.0,2.98,-99999.0,'11133222,11111222,99999999' 
TABS,ioos:station:wmo:42048:1,2000-06-02T08:00:00Z,27.9396,-96.8429,2.0,109.3807385,2.681976883,-99999.0,'11133222,11111222,99999999' 
TABS,ioos:station:wmo:42048:1,2000-06-02T08:30:00Z,27.9396,-96.8429,2.0,102.1745595,3.508917212,-99999.0,'11133222,11111222,99999999' 
TABS,ioos:station:wmo:42048:1,2000-06-02T09:00:00Z,27.9396,-96.8429,2.0,90.0,3.28,-99999.0,'11133222,11111222,99999999' 
TABS,ioos:station:wmo:42048:1,2000-06-02T09:30:00Z,27.9396,-96.8429,2.0,98.48892403,4.064529493,-99999.0,'11133222,11111222,99999999' 
TABS,ioos:station:wmo:42048:1,2000-06-02T10:00:00Z,27.9396,-96.8429,2.0,117.9076099,2.862953021,-99999.0,'11133222,11111222,99999999' 
TABS,ioos:station:wmo:42048:1,2000-06-02T10:30:00Z,27.9396,-96.8429,2.0,97.18425059,2.39883305,-99999.0,'11133222,11111222,99999999' 
TABS,ioos:station:wmo:42048:1,2000-06-02T11:00:00Z,27.9396,-96.8429,2.0,105.8728019,3.254074369,-99999.0,'11133222,11111222,99999999' 
TABS,ioos:station:wmo:42048:1,2000-06-02T11:30:00Z,27.9396,-96.8429,2.0,105.1811532,3.398602654,-99999.0,'11133222,11111222,99999999' 
TABS,ioos:station:wmo:42048:1,2000-06-02T12:00:00Z,27.9396,-96.8429,2.0,104.6538015,2.925149569,-99999.0,'11133222,11111222,99999999' 
TABS,ioos:station:wmo:42048:1,2000-06-02T12:30:00Z,27.9396,-96.8429,2.0,121.0014532,2.601634102,-99999.0,'11133222,11111222,99999999' 
TABS,ioos:station:wmo:42048:1,2000-06-02T13:00:00Z,27.9396,-96.8429,2.0,120.4951554,2.936153947,-99999.0,'11133222,11111222,99999999' 
TABS,ioos:station:wmo:42048:1,2000-06-02T13:30:00Z,27.9396,-96.8429,2.0,137.7435933,2.215784286,-99999.0,'11133222,11111222,99999999' 
TABS,ioos:station:wmo:42048:1,2000-06-02T14:00:00Z,27.9396,-96.8429,2.0,129.2512448,2.117829077,-99999.0,'11133222,11111222,99999999' 
TABS,ioos:station:wmo:42048:1,2000-06-02T14:30:00Z,27.9396,-96.8429,2.0,134.9998948,1.895046174,-99999.0,'11133222,11111222,99999999' 
TABS,ioos:station:wmo:42048:1,2000-06-02T15:00:00Z,27.9396,-96.8429,2.0,131.6068916,1.792121648,-99999.0,'11133222,11111222,99999999' 
TABS,ioos:station:wmo:42048:1,2000-06-02T15:30:00Z,27.9396,-96.8429,2.0,134.9998948,1.682914139,-99999.0,'11133222,11111222,99999999' 
TABS,ioos:station:wmo:42048:1,2000-06-02T16:00:00Z,27.9396,-96.8429,2.0,126.7926976,1.486001346,-99999.0,'11133222,11111222,99999999' 
TABS,ioos:station:wmo:42048:1,2000-06-02T16:30:00Z,27.9396,-96.8429,2.0,144.5665584,1.276401191,-99999.0,'11133222,11111222,99999999' 
TABS,ioos:station:wmo:42048:1,2000-06-02T17:00:00Z,27.9396,-96.8429,2.0,146.0137019,1.073359213,-99999.0,'11133222,11111222,99999999' 
TABS,ioos:station:wmo:42048:1,2000-06-02T17:30:00Z,27.9396,-96.8429,2.0,63.43501094,0.670820393,-99999.0,'11133222,11111222,99999999' 
TABS,ioos:station:wmo:42048:1,2000-06-02T18:00:00Z,27.9396,-96.8429,2.0,61.09088395,1.530751449,-99999.0,'11133222,11111222,99999999' 
TABS,ioos:station:wmo:42048:1,2000-06-02T18:30:00Z,27.9396,-96.8429,2.0,71.46912177,1.887882412,-99999.0,'11133222,11111222,99999999' 
TABS,ioos:station:wmo:42048:1,2000-06-02T19:00:00Z,27.9396,-96.8429,2.0,90.0,1.64,-99999.0,'11133222,11111222,99999999' 
TABS,ioos:station:wmo:42048:1,2000-06-02T19:30:00Z,27.9396,-96.8429,2.0,90.0,1.34,-99999.0,'11133222,11111222,99999999' 
TABS,ioos:station:wmo:42048:1,2000-06-02T20:00:00Z,27.9396,-96.8429,2.0,94.42127908,1.945790328,-99999.0,'11133222,11111222,99999999' 
TABS,ioos:station:wmo:42048:1,2000-06-02T20:30:00Z,27.9396,-96.8429,2.0,108.5308782,1.887882412,-99999.0,'11133222,11111222,99999999' 
TABS,ioos:station:wmo:42048:1,2000-06-02T21:00:00Z,27.9396,-96.8429,2.0,83.61289791,2.696738771,-99999.0,'11133222,11111222,99999999' 
TABS,ioos:station:wmo:42048:1,2000-06-02T21:30:00Z,27.9396,-96.8429,2.0,90.0,2.98,-99999.0,'11133222,11111222,99999999' 
TABS,ioos:station:wmo:42048:1,2000-06-02T22:00:00Z,27.9396,-96.8429,2.0,94.99856073,3.443094538,-99999.0,'11133222,11111222,99999999' 
TABS,ioos:station:wmo:42048:1,2000-06-02T22:30:00Z,27.9396,-96.8429,2.0,90.0,3.58,-99999.0,'11133222,11111222,99999999' 
TABS,ioos:station:wmo:42048:1,2000-06-02T23:00:00Z,27.9396,-96.8429,2.0,90.0,4.17,-99999.0,'11133222,11111222,99999999' 
TABS,ioos:station:wmo:42048:1,2000-06-02T23:30:00Z,27.9396,-96.8429,2.0,117.7668193,3.198280788,-99999.0,'11133222,11111222,99999999' 
TABS,ioos:station:wmo:42048:1,2000-06-03T00:00:00Z,27.9396,-96.8429,2.0,151.1743039,3.40147027,-99999.0,'11133222,11111222,99999999' 
TABS,ioos:station:wmo:42048:1,2000-06-03T00:30:00Z,27.9396,-96.8429,2.0,159.8219026,3.015045605,-99999.0,'11133222,11111222,99999999' 
TABS,ioos:station:wmo:42048:1,2000-06-03T01:00:00Z,27.9396,-96.8429,2.0,179.9997895,3.43,-99999.0,'11133222,11111222,99999999' 
TABS,ioos:station:wmo:42048:1,2000-06-03T01:30:00Z,27.9396,-96.8429,2.0,176.1602022,4.480055803,-99999.0,'11133222,11111222,99999999' 
TABS,ioos:station:wmo:42048:1,2000-06-03T02:00:00Z,27.9396,-96.8429,2.0,192.6860453,4.735609781,-99999.0,'11133222,11111222,99999999' 
TABS,ioos:station:wmo:42048:1,2000-06-03T02:30:00Z,27.9396,-96.8429,2.0,197.8141891,4.380011416,-99999.0,'11133222,11111222,99999999' 
TABS,ioos:station:wmo:42048:1,2000-06-03T03:00:00Z,27.9396,-96.8429,2.0,204.5513078,5.727870459,-99999.0,'11133222,11111222,99999999' 
TABS,ioos:station:wmo:42048:1,2000-06-03T03:30:00Z,27.9396,-96.8429,2.0,216.5907922,5.754068126,-99999.0,'11133222,11111222,99999999' 
TABS,ioos:station:wmo:42048:1,2000-06-03T04:00:00Z,27.9396,-96.8429,2.0,221.5504211,5.171247432,-99999.0,'11133222,11111222,99999999' 
TABS,ioos:station:wmo:42048:1,2000-06-03T04:30:00Z,27.9396,-96.8429,2.0,216.8915786,5.214000384,-99999.0,'11133222,11111222,99999999' 
TABS,ioos:station:wmo:42048:1,2000-06-03T05:00:00Z,27.9396,-96.8429,2.0,228.8364191,4.755344362,-99999.0,'11133222,11111222,99999999' 
TABS,ioos:station:wmo:42048:1,2000-06-03T05:30:00Z,27.9396,-96.8429,2.0,230.2361838,3.486445181,-99999.0,'11133222,11111222,99999999' 
TABS,ioos:station:wmo:42048:1,2000-06-03T06:00:00Z,27.9396,-96.8429,2.0,233.0528091,2.978002686,-99999.0,'11133222,11111222,99999999' 
TABS,ioos:station:wmo:42048:1,2000-06-03T06:30:00Z,27.9396,-96.8429,2.0,208.8252752,3.40147027,-99999.0,'11133222,11111222,99999999' 
TABS,ioos:station:wmo:42048:1,2000-06-03T07:00:00Z,27.9396,-96.8429,2.0,230.7483343,4.235658154,-99999.0,'11133222,11111222,99999999' 
TABS,ioos:station:wmo:42048:1,2000-06-03T07:30:00Z,27.9396,-96.8429,2.0,226.8633103,3.261487391,-99999.0,'11133222,11111222,99999999' 
TABS,ioos:station:wmo:42048:1,2000-06-03T08:00:00Z,27.9396,-96.8429,2.0,233.6679335,2.768122107,-99999.0,'11133222,11111222,99999999' 
TABS,ioos:station:wmo:42048:1,2000-06-03T08:30:00Z,27.9396,-96.8429,2.0,231.3867864,1.906882272,-99999.0,'11133222,11111222,99999999' 
TABS,ioos:station:wmo:42048:1,2000-06-03T09:00:00Z,27.9396,-96.8429,2.0,228.3926874,1.792121648,-99999.0,'11133222,11111222,99999999' 
TABS,ioos:station:wmo:42048:1,2000-06-03T09:30:00Z,27.9396,-96.8429,2.0,206.7570451,1.332704018,-99999.0,'11133222,11111222,99999999' 
TABS,ioos:station:wmo:42048:1,2000-06-03T10:00:00Z,27.9396,-96.8429,2.0,179.9997895,1.49,-99999.0,'11133222,11111222,99999999' 
TABS,ioos:station:wmo:42048:1,2000-06-03T10:30:00Z,27.9396,-96.8429,2.0,179.9997895,1.34,-99999.0,'11133222,11111222,99999999' 
TABS,ioos:station:wmo:42048:1,2000-06-03T11:00:00Z,27.9396,-96.8429,2.0,174.2511396,1.497531302,-99999.0,'11133222,11111222,99999999' 
TABS,ioos:station:wmo:42048:1,2000-06-03T11:30:00Z,27.9396,-96.8429,2.0,179.9997895,2.38,-99999.0,'11133222,11111222,99999999' 
TABS,ioos:station:wmo:42048:1,2000-06-03T12:00:00Z,27.9396,-96.8429,2.0,172.8155389,1.199416525,-99999.0,'11133222,11111222,99999999' 
TABS,ioos:station:wmo:42048:1,2000-06-03T12:30:00Z,27.9396,-96.8429,2.0,185.7484395,1.497531302,-99999.0,'11133222,11111222,99999999' 
TABS,ioos:station:wmo:42048:1,2000-06-03T13:00:00Z,27.9396,-96.8429,2.0,153.4348005,0.335410197,-99999.0,'11133222,11111222,99999999' 
TABS,ioos:station:wmo:42048:1,2000-06-03T13:30:00Z,27.9396,-96.8429,2.0,159.2856631,1.272242115,-99999.0,'11133222,11111222,99999999' 
TABS,ioos:station:wmo:42048:1,2000-06-03T14:00:00Z,27.9396,-96.8429,2.0,153.1778711,0.997296345,-99999.0,'11133222,11111222,99999999' 
TABS,ioos:station:wmo:42048:1,2000-06-03T14:30:00Z,27.9396,-96.8429,2.0,112.067848,0.798498591,-99999.0,'11133222,11111222,99999999' 
TABS,ioos:station:wmo:42048:1,2000-06-03T15:00:00Z,27.9396,-96.8429,2.0,132.1183178,4.219691932,-99999.0,'11133222,11111222,99999999' 
TABS,ioos:station:wmo:42048:1,2000-06-03T15:30:00Z,27.9396,-96.8429,2.0,130.2097752,2.540314941,-99999.0,'11133222,11111222,99999999' 
TABS,ioos:station:wmo:42048:1,2000-06-03T16:00:00Z,27.9396,-96.8429,2.0,145.0853475,1.817058062,-99999.0,'11133222,11111222,99999999' 
TABS,ioos:station:wmo:42048:1,2000-06-03T16:30:00Z,27.9396,-96.8429,2.0,125.4332312,1.276401191,-99999.0,'11133222,11111222,99999999' 
TABS,ioos:station:wmo:42048:1,2000-06-03T17:00:00Z,27.9396,-96.8429,2.0,107.185666,2.030664916,-99999.0,'11133222,11111222,99999999' 
TABS,ioos:station:wmo:42048:1,2000-06-03T17:30:00Z,27.9396,-96.8429,2.0,128.6127927,1.906882272,-99999.0,'11133222,11111222,99999999' 
TABS,ioos:station:wmo:42048:1,2000-06-03T18:00:00Z,27.9396,-96.8429,2.0,101.678757,3.655680511,-99999.0,'11133222,11111222,99999999' 
TABS,ioos:station:wmo:42048:1,2000-06-03T18:30:00Z,27.9396,-96.8429,2.0,146.0137019,1.073359213,-99999.0,'11133222,11111222,99999999' 
TABS,ioos:station:wmo:42048:1,2000-06-03T19:00:00Z,27.9396,-96.8429,2.0,151.0906735,1.530751449,-99999.0,'11133222,11111222,99999999' 
TABS,ioos:station:wmo:42048:1,2000-06-03T19:30:00Z,27.9396,-96.8429,2.0,174.7738744,1.646845469,-99999.0,'11133222,11111222,99999999' 
TABS,ioos:station:wmo:42048:1,2000-06-03T20:00:00Z,27.9396,-96.8429,2.0,179.9997895,0.89,-99999.0,'11133222,11111222,99999999' 
TABS,ioos:station:wmo:42048:1,2000-06-03T20:30:00Z,27.9396,-96.8429,2.0,148.6957392,0.866083137,-99999.0,'11133222,11111222,99999999' 
TABS,ioos:station:wmo:42048:1,2000-06-03T21:00:00Z,27.9396,-96.8429,2.0,139.4439905,1.368831619,-99999.0,'11133222,11111222,99999999' 
TABS,ioos:station:wmo:42048:1,2000-06-03T21:30:00Z,27.9396,-96.8429,2.0,138.8480652,1.580411339,-99999.0,'11133222,11111222,99999999' 
TABS,ioos:station:wmo:42048:1,2000-06-03T22:00:00Z,27.9396,-96.8429,2.0,165.8503465,1.227232659,-99999.0,'11133222,11111222,99999999' 
TABS,ioos:station:wmo:42048:1,2000-06-03T22:30:00Z,27.9396,-96.8429,2.0,246.6018699,1.133181362,-99999.0,'11133222,11111222,99999999' 
TABS,ioos:station:wmo:42048:1,2000-06-03T23:00:00Z,27.9396,-96.8429,2.0,253.9088004,1.08240473,-99999.0,'11133222,11111222,99999999' 
TABS,ioos:station:wmo:42048:1,2000-06-03T23:30:00Z,27.9396,-96.8429,2.0,295.337834,3.131213822,-99999.0,'11133222,11111222,99999999' 
TABS,ioos:station:wmo:42048:1,2000-06-04T00:00:00Z,27.9396,-96.8429,2.0,313.1366897,3.261487391,-99999.0,'11133222,11111222,99999999' 
TABS,ioos:station:wmo:42048:1,2000-06-04T00:30:00Z,27.9396,-96.8429,2.0,310.5790366,2.751763071,-99999.0,'11133222,11111222,99999999' 
TABS,ioos:station:wmo:42048:1,2000-06-04T01:00:00Z,27.9396,-96.8429,2.0,315.0003157,2.107178208,-99999.0,'11133222,11111222,99999999' 
TABS,ioos:station:wmo:42048:1,2000-06-04T01:30:00Z,27.9396,-96.8429,2.0,315.0003157,0.212132034,-99999.0,'11133222,11111222,99999999' 
TABS,ioos:station:wmo:42048:1,2000-06-04T02:00:00Z,27.9396,-96.8429,2.0,315.0003157,0.636396103,-99999.0,'11133222,11111222,99999999' 
TABS,ioos:station:wmo:42048:1,2000-06-04T02:30:00Z,27.9396,-96.8429,2.0,153.1778711,0.997296345,-99999.0,'11133222,11111222,99999999' 
TABS,ioos:station:wmo:42048:1,2000-06-04T03:00:00Z,27.9396,-96.8429,2.0,281.4591465,0.755049667,-99999.0,'11133222,11111222,99999999' 
TABS,ioos:station:wmo:42048:1,2000-06-04T03:30:00Z,27.9396,-96.8429,2.0,0.000210459,1.19,-99999.0,'11133222,11111222,99999999' 
TABS,ioos:station:wmo:42048:1,2000-06-04T04:00:00Z,27.9396,-96.8429,2.0,270.0004209,0.15,-99999.0,'11133222,11111222,99999999' 
TABS,ioos:station:wmo:42048:1,2000-06-04T04:30:00Z,27.9396,-96.8429,2.0,0.000210459,0.45,-99999.0,'11133222,11111222,99999999' 
TABS,ioos:station:wmo:42048:1,2000-06-04T05:00:00Z,27.9396,-96.8429,2.0,179.9997895,0.45,-99999.0,'11133222,11111222,99999999' 
TABS,ioos:station:wmo:42048:1,2000-06-04T05:30:00Z,27.9396,-96.8429,2.0,304.914863,1.817058062,-99999.0,'11133222,11111222,99999999' 
TABS,ioos:station:wmo:42048:1,2000-06-04T06:00:00Z,27.9396,-96.8429,2.0,326.3102217,0.540832691,-99999.0,'11133222,11111222,99999999' 
TABS,ioos:station:wmo:42048:1,2000-06-04T06:30:00Z,27.9396,-96.8429,2.0,354.2515605,1.497531302,-99999.0,'11133222,11111222,99999999' 
TABS,ioos:station:wmo:42048:1,2000-06-04T07:00:00Z,27.9396,-96.8429,2.0,16.8051921,1.556470366,-99999.0,'11133222,11111222,99999999' 
TABS,ioos:station:wmo:42048:1,2000-06-04T07:30:00Z,27.9396,-96.8429,2.0,19.23880999,3.156263614,-99999.0,'11133222,11111222,99999999' 
TABS,ioos:station:wmo:42048:1,2000-06-04T08:00:00Z,27.9396,-96.8429,2.0,41.28814015,3.167412193,-99999.0,'11133222,11111222,99999999' 
TABS,ioos:station:wmo:42048:1,2000-06-04T08:30:00Z,27.9396,-96.8429,2.0,10.8517611,3.186989175,-99999.0,'11133222,11111222,99999999' 
TABS,ioos:station:wmo:42048:1,2000-06-04T09:00:00Z,27.9396,-96.8429,2.0,16.32877048,6.366804536,-99999.0,'11133222,11111222,99999999' 
TABS,ioos:station:wmo:42048:1,2000-06-04T09:30:00Z,27.9396,-96.8429,2.0,25.21524461,8.732032982,-99999.0,'11133222,11111222,99999999' 
TABS,ioos:station:wmo:42048:1,2000-06-04T10:00:00Z,27.9396,-96.8429,2.0,14.0364211,6.143427382,-99999.0,'11133222,11111222,99999999' 
TABS,ioos:station:wmo:42048:1,2000-06-04T10:30:00Z,27.9396,-96.8429,2.0,35.10186843,8.556073866,-99999.0,'11133222,11111222,99999999' 
TABS,ioos:station:wmo:42048:1,2000-06-04T11:00:00Z,27.9396,-96.8429,2.0,16.62429356,7.305347357,-99999.0,'11133222,11111222,99999999' 
TABS,ioos:station:wmo:42048:1,2000-06-04T11:30:00Z,27.9396,-96.8429,2.0,26.02638488,7.133372274,-99999.0,'11133222,11111222,99999999' 
TABS,ioos:station:wmo:42048:1,2000-06-04T12:00:00Z,27.9396,-96.8429,2.0,48.14739542,7.598716997,-99999.0,'11133222,11111222,99999999' 
TABS,ioos:station:wmo:42048:1,2000-06-04T12:30:00Z,27.9396,-96.8429,2.0,47.41155906,9.915346691,-99999.0,'11133222,11111222,99999999' 
TABS,ioos:station:wmo:42048:1,2000-06-04T13:00:00Z,27.9396,-96.8429,2.0,45.00010523,12.00667314,-99999.0,'11111222,11111222,99999999' 
TABS,ioos:station:wmo:42048:1,2000-06-04T13:30:00Z,27.9396,-96.8429,2.0,38.36555355,9.119106316,-99999.0,'11133222,11111222,99999999' 
TABS,ioos:station:wmo:42048:1,2000-06-04T14:00:00Z,27.9396,-96.8429,2.0,47.23991377,13.38868926,-99999.0,'11111222,11111222,99999999' 
TABS,ioos:station:wmo:42048:1,2000-06-04T14:30:00Z,27.9396,-96.8429,2.0,36.47562755,12.78430288,-99999.0,'11111222,11111222,99999999' 
TABS,ioos:station:wmo:42048:1,2000-06-04T15:00:00Z,27.9396,-96.8429,2.0,41.72265197,16.57340641,-99999.0,'11111222,11111222,99999999' 
TABS,ioos:station:wmo:42048:1,2000-06-04T15:30:00Z,27.9396,-96.8429,2.0,39.58553787,15.66158677,-99999.0,'11111222,11111222,99999999' 
TABS,ioos:station:wmo:42048:1,2000-06-04T16:00:00Z,27.9396,-96.8429,2.0,37.7460938,17.52804895,-99999.0,'11111222,11111222,99999999' 
TABS,ioos:station:wmo:42048:1,2000-06-04T16:30:00Z,27.9396,-96.8429,2.0,32.19586911,20.41991185,-99999.0,'11111222,11111222,99999999' 